Date,TemperatureHighF,TemperatureAvgF,TemperatureLowF,DewpointHighF,DewpointAvgF,DewpointLowF,HumidityHigh,HumidityAvg,HumidityLow,PressureMaxIn,PressureMinIn,WindSpeedMaxMPH,WindSpeedAvgMPH,GustSpeedMaxMPH,PrecipitationSumIn
2013-4-1,61,45,33,48,39,18,100,81,48,29.86,29.57,11,2,14,0.05
2013-4-2,40,33,28,20,18,13,72,54,39,30.04,29.86,14,2,8,0.00
2013-4-3,43,34,28,20,17,14,63,51,38,30.27,30.03,10,3,12,0.00
2013-4-4,51,36,26,33,22,16,85,59,41,30.36,30.08,5,1,5,0.00
2013-4-5,60,45,36,33,28,23,83,54,30,30.05,29.68,8,2,6,0.00
2013-4-6,49,36,30,27,19,11,74,52,25,30.31,29.96,11,2,15,0.00
2013-4-7,52,43,32,43,37,26,98,80,60,30.30,30.01,11,1,16,0.00
2013-4-8,71,51,42,48,44,42,100,81,40,30.07,29.97,7,0,3,0.00
2013-4-9,77,61,46,56,47,43,99,64,36,30.00,29.90,14,1,2,0.00
2013-4-10,69,56,48,58,51,44,100,83,60,29.98,29.80,5,0,9,0.32
2013-4-11,58,50,43,55,48,39,100,93,78,30.05,29.78,7,1,6,0.01
2013-4-12,43,39,36,39,36,30,100,90,59,30.05,29.72,14,4,6,0.49
2013-4-13,54,44,35,42,38,35,100,81,58,29.95,29.74,5,1,5,0.06
2013-4-14,52,47,39,40,34,29,88,61,46,30.21,29.94,10,2,5,0.00
2013-4-15,55,44,36,38,33,27,80,66,49,30.38,30.21,4,0,3,0.00
2013-4-16,61,49,39,54,46,35,98,89,73,30.37,30.12,7,1,5,0.01
2013-4-17,66,56,50,55,44,37,99,68,39,30.28,30.10,10,1,4,0.00
2013-4-18,57,50,42,49,43,35,97,79,53,30.35,30.11,9,1,3,0.00
2013-4-19,69,57,50,64,56,49,100,98,82,30.11,29.65,7,1,6,0.00
2013-4-20,60,50,43,60,38,30,100,67,43,30.26,29.64,9,2,7,0.21
2013-4-21,51,41,31,32,26,23,78,56,39,30.63,30.27,10,2,10,0.00
2013-4-22,51,41,34,37,33,28,91,76,46,30.67,30.50,10,2,6,0.00
2013-4-23,46,40,35,42,37,31,98,88,82,30.50,30.09,7,1,9,0.00
2013-4-24,68,49,39,53,45,38,100,88,59,30.09,29.84,6,1,6,0.00
2013-4-25,62,52,45,51,39,27,100,66,30,30.25,29.85,10,1,9,0.01
2013-4-26,64,52,40,40,36,32,80,56,37,30.40,30.25,5,0,0,0.00
2013-4-27,67,54,42,38,34,30,72,49,30,30.41,30.27,5,1,0,0.00
2013-4-28,66,52,41,49,40,34,100,66,42,30.31,30.20,4,0,1,0.00
2013-4-29,55,51,48,49,44,37,95,78,63,30.25,30.19,3,0,1,0.01
2013-4-30,65,54,46,47,40,33,90,62,34,30.33,30.21,6,1,7,0.00